Regional Weather Roundup
Issued by NWS Goodland, KS

Home | Current Version | Previous Version | Text Only | Print | Product List | Glossary Off
Versions: 1 2 3 4 5 6 7 8 9 10 11 12 13 14 15 16 17 18 19 20 21 22 23 24 25 26 27 28 29 30 31 32 33 34 35 36 37 38 39 40 41 42 43 44 45 46 47 48 49 50

000
ASUS43 KGLD 292308
RWRGLD

GOODLAND FORECAST AREA HOURLY WEATHER ROUNDUP
NATIONAL WEATHER SERVICE GOODLAND KS
500 PM MDT FRI AUG 29 2014

...OFFICIAL OBSERVATIONS...

CITY           SKY/WX    TMP DP  RH WIND       PRES   REMARKS
GOODLAND KS    SUNNY     84  47  27 N13       29.97S
HILL CITY KS   SUNNY     87  52  29 N8        29.87S
IMPERIAL NEB   MOSUNNY   84  52  33 N12       29.93S
MCCOOK NEB     MOSUNNY   87  51  28 NE13      29.88S
AKRON CO       MOSUNNY   78  52  40 N12       30.04R
BURLINGTON CO  SUNNY     84  46  26 N10       30.00S
LIMON CO       MOSUNNY   77  43  29 N12       30.09R
$$

...UNOFFICIAL OBSERVATIONS...

CITY           SKY/WX    TMP DP  RH WIND       PRES   REMARKS
COLBY KS       SUNNY     82  55  39 N6        29.94R
GOVE KS          N/A     86  32  14 CALM        N/A
NORTON KS      SUNNY     88  46  23 N6G20     29.86S
SHARON SPRINGS   N/A     84  51  31 N10         N/A
WAKEENEY KS      N/A     86  47  25 MISG        N/A
KIT CARSON CO    N/A     85  47  26 CALM        N/A
YUMA CO          N/A     78  48  34 CALM        N/A
$$


USA.gov is the U.S. government's official web portal to all federal, state and local government web resources and services.